| time (UTC) | temp F | wind direction | speed MPH | gust MPH | rain 1hr in | rain 24hr in | rain mn in | humidity % | barometer mb |
| 20260508044517 | 39 | 161 | 3.0 | 7.0 | 0.00 | 0.04 | 0.00 | 83 | 1014.8 |
| 20260508043015 | 39 | 153 | 2.0 | 6.0 | 0.00 | 0.04 | 0.00 | 83 | 1014.6 |
| 20260508041512 | 39 | 159 | 0.0 | 6.0 | 0.00 | 0.04 | 0.00 | 83 | 1014.5 |
| 20260508040009 | 40 | 154 | 1.0 | 5.0 | 0.00 | 0.04 | 0.00 | 82 | 1014.3 |
| 20260508034506 | 40 | 156 | 1.0 | 6.0 | 0.00 | 0.05 | 0.04 | 82 | 1014.0 |
| 20260508033008 | 40 | 150 | 2.0 | 4.0 | 0.00 | 0.05 | 0.04 | 82 | 1013.9 |
| 20260508031500 | 41 | 142 | 0.0 | 3.0 | 0.00 | 0.05 | 0.04 | 81 | 1013.7 |
| 20260508030100 | 41 | 161 | 3.0 | 5.0 | 0.00 | 0.05 | 0.04 | 81 | 1013.5 |
| 20260508024556 | 41 | 144 | 2.0 | 3.0 | 0.00 | 0.05 | 0.04 | 83 | 1013.3 |
| 20260508023053 | 42 | 140 | 0.0 | 2.0 | 0.00 | 0.05 | 0.04 | 84 | 1013.3 |
| 20260508021555 | 42 | 140 | 0.0 | 3.0 | 0.00 | 0.05 | 0.04 | 81 | 1013.1 |
| 20260508020050 | 44 | 331 | 1.0 | 3.0 | 0.00 | 0.05 | 0.04 | 78 | 1012.9 |
| 20260508014544 | 0 | 0.0 | 0.0 | 0.00 | 0.06 | 0.04 | 1012.8 | ||
| 20260508013052 | 50 | 277 | 1.0 | 7.0 | 0.00 | 0.06 | 0.04 | 53 | 1012.6 |
| 20260508011543 | 50 | 288 | 0.0 | 4.0 | 0.00 | 0.06 | 0.04 | 54 | 1012.3 |
| 20260508010040 | 51 | 306 | 0.0 | 4.0 | 0.00 | 0.06 | 0.04 | 54 | 1012.2 |
| 20260508004540 | 51 | 311 | 0.0 | 2.0 | 0.00 | 0.07 | 0.04 | 54 | 1012.0 |
| 20260508003037 | 52 | 314 | 0.0 | 4.0 | 0.00 | 0.07 | 0.04 | 53 | 1011.7 |
| 20260508001601 | 53 | 300 | 0.0 | 4.0 | 0.00 | 0.07 | 0.04 | 51 | 1011.5 |
| 20260508000037 | 53 | 322 | 0.0 | 3.0 | 0.00 | 0.07 | 0.04 | 51 | 1011.3 |
| 20260507234536 | 54 | 321 | 2.0 | 6.0 | 0.00 | 0.08 | 0.04 | 49 | 1011.2 |
| 20260507233035 | 54 | 327 | 1.0 | 6.0 | 0.00 | 0.08 | 0.04 | 49 | 1011.1 |
| 20260507231537 | 55 | 309 | 2.0 | 10.0 | 0.00 | 0.08 | 0.04 | 48 | 1011.0 |
| 20260507230034 | 56 | 339 | 2.0 | 8.0 | 0.00 | 0.08 | 0.04 | 48 | 1010.8 |
| 20260507224541 | 55 | 348 | 2.0 | 6.0 | 0.00 | 0.10 | 0.04 | 51 | 1010.8 |
| 20260507223033 | 55 | 344 | 2.0 | 8.0 | 0.00 | 0.10 | 0.04 | 51 | 1010.7 |
| 20260507221532 | 57 | 333 | 3.0 | 8.0 | 0.00 | 0.10 | 0.04 | 48 | 1010.4 |
| 20260507220040 | 57 | 310 | 2.0 | 11.0 | 0.00 | 0.10 | 0.04 | 50 | 1010.3 |
| 20260507214536 | 57 | 9 | 3.0 | 6.0 | 0.00 | 0.10 | 0.04 | 48 | 1010.0 |
| 20260507213033 | 57 | 340 | 1.0 | 6.0 | 0.00 | 0.10 | 0.04 | 50 | 1010.0 |
| 20260507211534 | 57 | 321 | 2.0 | 5.0 | 0.00 | 0.10 | 0.04 | 49 | 1009.9 |
| 20260507210028 | 56 | 334 | 3.0 | 7.0 | 0.00 | 0.10 | 0.04 | 49 | 1009.8 |
| 20260507204528 | 57 | 327 | 2.0 | 5.0 | 0.00 | 0.10 | 0.04 | 51 | 1009.8 |
| 20260507203032 | 57 | 340 | 4.0 | 9.0 | 0.00 | 0.10 | 0.04 | 50 | 1009.8 |
| 20260507201526 | 57 | 360 | 1.0 | 10.0 | 0.00 | 0.10 | 0.04 | 50 | 1009.9 |
| 20260507200027 | 58 | 337 | 2.0 | 12.0 | 0.00 | 0.10 | 0.04 | 50 | 1010.1 |
| 20260507194521 | 57 | 317 | 3.0 | 8.0 | 0.00 | 0.11 | 0.04 | 53 | 1010.2 |
| 20260507193024 | 57 | 5 | 2.0 | 10.0 | 0.00 | 0.11 | 0.04 | 54 | 1010.4 |
| 20260507191521 | 56 | 355 | 2.0 | 6.0 | 0.00 | 0.11 | 0.04 | 56 | 1010.4 |
| 20260507190019 | 57 | 329 | 3.0 | 6.0 | 0.00 | 0.11 | 0.04 | 54 | 1010.3 |
| 20260507184516 | 57 | 355 | 5.0 | 10.0 | 0.00 | 0.11 | 0.04 | 55 | 1010.4 |
| 20260507183019 | 57 | 306 | 4.0 | 11.0 | 0.00 | 0.11 | 0.04 | 58 | 1010.5 |
| 20260507181515 | 56 | 314 | 2.0 | 13.0 | 0.00 | 0.11 | 0.04 | 56 | 1010.5 |
| 20260507180014 | 57 | 327 | 3.0 | 6.0 | 0.00 | 0.11 | 0.04 | 60 | 1010.4 |
| 20260507174512 | 56 | 332 | 2.0 | 5.0 | 0.00 | 0.12 | 0.04 | 61 | 1010.6 |
| 20260507173017 | 55 | 326 | 2.0 | 5.0 | 0.00 | 0.12 | 0.04 | 60 | 1010.7 |
| 20260507171514 | 56 | 327 | 3.0 | 9.0 | 0.00 | 0.12 | 0.04 | 62 | 1011.0 |
| 20260507170007 | 55 | 336 | 2.0 | 5.0 | 0.00 | 0.12 | 0.04 | 60 | 1011.3 |
| 20260507164502 | 55 | 329 | 2.0 | 8.0 | 0.00 | 0.12 | 0.04 | 65 | 1011.4 |
| 20260507163001 | 55 | 330 | 1.0 | 5.0 | 0.00 | 0.12 | 0.04 | 65 | 1011.6 |
| 20260507161557 | 54 | 294 | 1.0 | 4.0 | 0.00 | 0.12 | 0.04 | 68 | 1011.7 |
| 20260507160056 | 53 | 302 | 1.0 | 5.0 | 0.00 | 0.12 | 0.04 | 70 | 1011.9 |
| 20260507154601 | 53 | 313 | 2.0 | 5.0 | 0.00 | 0.12 | 0.04 | 69 | 1011.9 |
| 20260507153058 | 51 | 317 | 1.0 | 3.0 | 0.00 | 0.12 | 0.04 | 69 | 1012.1 |
| 20260507151547 | 51 | 300 | 1.0 | 3.0 | 0.00 | 0.12 | 0.04 | 74 | 1012.0 |
| 20260507150045 | 50 | 325 | 1.0 | 3.0 | 0.00 | 0.12 | 0.04 | 76 | 1012.1 |
| 20260507144542 | 49 | 340 | 0.0 | 3.0 | 0.00 | 0.12 | 0.04 | 76 | 1012.3 |
| 20260507143042 | 49 | 346 | 0.0 | 2.0 | 0.00 | 0.12 | 0.04 | 80 | 1012.5 |
| 20260507141539 | 49 | 348 | 0.0 | 3.0 | 0.00 | 0.12 | 0.04 | 83 | 1012.6 |
| 20260507140041 | 48 | 338 | 0.0 | 3.0 | 0.00 | 0.12 | 0.04 | 86 | 1012.8 |
| 20260507134539 | 48 | 218 | 0.0 | 1.0 | 0.00 | 0.13 | 0.04 | 89 | 1012.7 |
| 20260507133035 | 47 | 219 | 0.0 | 1.0 | 0.00 | 0.13 | 0.04 | 91 | 1012.9 |
| 20260507131550 | 47 | 201 | 0.0 | 3.0 | 0.00 | 0.13 | 0.04 | 92 | 1013.0 |
| 20260507130032 | 46 | 161 | 0.0 | 2.0 | 0.00 | 0.13 | 0.04 | 93 | 1013.0 |
| 20260507124534 | 46 | 298 | 0.0 | 0.0 | 0.00 | 0.20 | 0.04 | 93 | 1013.1 |
| 20260507123031 | 46 | 298 | 0.0 | 0.0 | 0.00 | 0.20 | 0.04 | 94 | 1013.1 |
| 20260507121532 | 46 | 298 | 0.0 | 0.0 | 0.00 | 0.20 | 0.04 | 94 | 1013.1 |
| 20260507120038 | 46 | 298 | 0.0 | 0.0 | 0.00 | 0.20 | 0.04 | 94 | 1013.0 |
| 20260507114527 | 45 | 298 | 0.0 | 0.0 | 0.00 | 0.28 | 0.04 | 94 | 1012.8 |
| 20260507113025 | 45 | 302 | 0.0 | 0.0 | 0.00 | 0.28 | 0.04 | 94 | 1012.6 |
| 20260507111525 | 45 | 302 | 0.0 | 0.0 | 0.00 | 0.28 | 0.04 | 94 | 1012.5 |
| 20260507110023 | 45 | 302 | 0.0 | 0.0 | 0.00 | 0.28 | 0.04 | 94 | 1012.1 |
| 20260507104522 | 45 | 302 | 0.0 | 0.0 | 0.00 | 0.40 | 0.04 | 94 | 1012.0 |
| 20260507103020 | 45 | 302 | 0.0 | 0.0 | 0.00 | 0.40 | 0.04 | 94 | 1012.1 |
| 20260507101519 | 45 | 302 | 0.0 | 0.0 | 0.00 | 0.40 | 0.04 | 94 | 1011.8 |
| 20260507100020 | 45 | 302 | 0.0 | 0.0 | 0.00 | 0.40 | 0.04 | 94 | 1011.9 |
| 20260507094517 | 45 | 302 | 0.0 | 0.0 | 0.00 | 0.46 | 0.04 | 94 | 1011.7 |
| 20260507093017 | 45 | 302 | 0.0 | 0.0 | 0.02 | 0.46 | 0.04 | 94 | 1011.7 |
| 20260507091516 | 46 | 310 | 0.0 | 3.0 | 0.02 | 0.46 | 0.04 | 94 | 1011.7 |
| 20260507090020 | 46 | 283 | 1.0 | 4.0 | 0.02 | 0.46 | 0.04 | 94 | 1011.8 |
| 20260507084513 | 47 | 336 | 0.0 | 2.0 | 0.02 | 0.47 | 0.04 | 94 | 1011.5 |
| 20260507083008 | 47 | 336 | 0.0 | 0.0 | 0.01 | 0.45 | 0.02 | 94 | 1011.4 |
| 20260507081515 | 47 | 336 | 0.0 | 0.0 | 0.01 | 0.45 | 0.02 | 94 | 1011.5 |
| 20260507080008 | 47 | 336 | 0.0 | 0.0 | 0.01 | 0.45 | 0.02 | 94 | 1011.5 |
| 20260507074611 | 47 | 336 | 0.0 | 0.0 | 0.01 | 0.45 | 0.02 | 94 | 1011.4 |
| 20260507073005 | 47 | 336 | 0.0 | 0.0 | 0.00 | 0.44 | 0.01 | 93 | 1011.4 |
| 20260507071507 | 47 | 336 | 0.0 | 0.0 | 0.00 | 0.44 | 0.01 | 93 | 1011.4 |
| 20260507070010 | 47 | 336 | 0.0 | 0.0 | 0.00 | 0.44 | 0.01 | 93 | 1011.2 |
| 20260507064507 | 47 | 336 | 0.0 | 0.0 | 0.00 | 0.44 | 0.01 | 93 | 1011.3 |
| 20260507063004 | 47 | 336 | 0.0 | 0.0 | 0.00 | 0.44 | 0.01 | 93 | 1011.2 |
| 20260507061504 | 47 | 336 | 0.0 | 0.0 | 0.00 | 0.44 | 0.01 | 93 | 1011.4 |
| 20260507060002 | 47 | 336 | 0.0 | 0.0 | 0.00 | 0.44 | 0.01 | 93 | 1011.7 |
| 20260507054501 | 47 | 336 | 0.0 | 1.0 | 0.00 | 0.44 | 0.01 | 93 | 1012.0 |
| 20260507053101 | 47 | 336 | 0.0 | 1.0 | 0.00 | 0.44 | 0.01 | 94 | 1012.0 |
| 20260507051600 | 47 | 336 | 0.0 | 4.0 | 0.01 | 0.44 | 0.01 | 94 | 1012.0 |
| 20260507050059 | 48 | 330 | 1.0 | 3.0 | 0.01 | 0.44 | 0.01 | 94 | 1011.9 |